Location: Łódź
(51.7951°N, 19.4477°E)
Time: 02:21:25
(UTC+02:00)

ISS - Visible Passes

Search period start: 20 October 2019 00:00
Search period end: 29 October 2019 23:00
Orbit: 411 x 421 km, 51.6° (Epoch: 19 October)

Date Brightness Start Highest point End Pass type
(mag) Time Alt. Az. Time Alt. Az. Time Alt. Az.
25 Oct -0.8 06:03:32 10° SSE 06:05:07 13° SE 06:06:42 10° ESE visible
26 Oct -2.1 06:49:36 10° SW 06:52:42 34° SSE 06:55:48 10° E visible
27 Oct -1.7 05:01:23 10° SSW 05:04:11 25° SSE 05:07:00 10° E visible
28 Oct -1.3 04:14:29 15° S 04:15:43 18° SE 04:18:03 10° E visible
28 Oct -3.2 05:48:39 10° WSW 05:51:58 58° SSE 05:55:18 10° E visible
29 Oct -0.6 03:28:10 11° ESE 03:28:10 11° ESE 03:28:37 10° ESE visible
29 Oct -2.8 05:01:04 17° SW 05:03:23 44° SSE 05:06:36 10° E visible
